Welcome!

Visit our other weather sites:

Template documentation
and downloads

And another site



There are no active watches, warnings or advisories

Select another period ( hide this area )

Units Period Custom range Directly to
Metric English Both
Daily Weekly Monthly Yearly
use both date-selectors for a custom range
previous Day
With this date

WeatherUnderground graphs for this period ( click here )


Daily Summary for Wednesday Oct 16 2019
Time Temp. ( °C ) Dew pt. ( °C ) Wind ( km/h ) from Gust ( km/h ) Pressure ( hPa ) Humid.( % ) Rainrate ( cm )
High4,4 -1,7 20,9 West ( 175/595 ) 22,5 1024,9 80 -
Average0,5 -3,9 8,0 West #37/118 10,8 1026,0 73 -
Low-2,1 -5,2 -   0,0 1023,6 60 -
Daily Tabular details for Wednesday Oct 16 2019
Time Temp. ( °C ) Dew pt. ( °C ) Wind ( km/h ) from Gust ( km/h ) Pressure ( hPa ) Humid.( % ) Rainrate ( cm )
00:00 4,4 -2,7 16,1 NNW 20,9 1023,6 60 -
00:18 4,2 -2,7 20,9 NNW 14,6 1023,6 61 -
00:20 4,2 -2,7 16,1 NNW 20,9 1023,6 61 -
00:25 4,1 -2,7 14,5 North 20,9 1023,6 61 -
00:30 4,1 -2,7 12,9 NNW 20,9 1023,6 61 -
00:35 4,1 -2,8 12,9 NNW 22,5 1023,6 61 -
00:40 4,1 -2,8 12,9 NNW 20,9 1023,6 61 -
00:45 4,0 -2,6 12,9 North 19,3 1023,6 62 -
00:50 4,0 -2,6 12,9 NNW 20,9 1023,6 62 -
00:55 3,9 -2,7 12,9 NNW 19,3 1023,6 62 -
01:00 3,8 -2,8 11,3 NNW 19,3 1023,9 62 -
01:05 3,7 -2,9 9,7 NNW 14,5 1023,9 62 -
01:10 3,6 -2,8 8,0 NNW 11,3 1023,9 63 -
01:15 3,4 -2,9 9,7 NW 11,3 1023,9 63 -
01:20 3,3 -2,9 8,0 NW 11,3 1023,9 64 -
01:25 3,2 -3,0 9,7 NW 11,3 1023,9 64 -
01:30 3,0 -3,1 11,3 NW 12,9 1023,9 64 -
01:35 2,8 -3,1 8,0 NW 11,3 1023,9 65 -
01:40 2,8 -3,2 8,0 WNW 9,7 1024,3 65 -
01:45 2,6 -3,1 8,0 WNW 9,7 1024,3 66 -
01:50 2,4 -3,3 8,0 NW 9,7 1024,3 66 -
01:55 2,3 -3,4 8,0 WNW 9,7 1024,3 66 -
02:00 2,2 -3,3 4,8 WNW 9,7 1024,3 67 -
02:05 2,1 -3,4 11,3 WNW 11,3 1024,6 67 -
02:10 1,9 -3,6 9,7 West 11,3 1024,3 67 -
02:15 1,8 -3,7 9,7 WNW 11,3 1024,3 67 -
02:20 1,7 -3,6 8,0 WNW 11,3 1024,3 68 -
02:25 1,4 -3,8 8,0 WNW 11,3 1024,3 68 -
02:30 1,3 -3,8 8,0 WNW 11,3 1024,3 69 -
02:35 1,2 -3,9 8,0 WNW 9,7 1024,3 69 -
02:40 1,1 -3,9 8,0 NW 9,7 1024,6 69 -
02:45 1,1 -3,9 9,7 WNW 11,3 1024,6 69 -
02:50 1,1 -3,9 9,7 WNW 11,3 1024,6 69 -
02:55 1,1 -3,8 8,0 WNW 11,3 1024,6 70 -
03:00 1,0 -3,9 4,8 WNW 9,7 1024,6 70 -
03:05 0,8 -4,0 9,7 WNW 9,7 1024,6 70 -
03:10 0,8 -4,1 11,3 West 14,5 1024,6 70 -
03:15 0,8 -3,9 11,3 West 14,5 1024,6 71 -
03:20 0,7 -4,2 9,7 West 14,5 1024,6 70 -
03:25 0,6 -4,1 8,0 West 11,3 1024,6 71 -
03:30 0,4 -4,2 4,8 West 9,7 1024,3 71 -
03:35 0,4 -4,1 8,0 WNW 9,7 1024,3 72 -
03:40 0,3 -4,2 8,0 WNW 9,7 1024,3 72 -
03:45 0,3 -4,2 8,0 NW 11,3 1024,3 72 -
03:50 0,3 -4,2 9,7 NW 11,3 1024,3 72 -
03:56 0,2 -4,2 12,9 NW 8,0 1024,3 72 -
04:00 0,3 -4,2 9,7 NW 12,9 1023,9 72 -
04:05 0,3 -4,2 11,3 NW 14,5 1024,3 72 -
04:10 0,3 -3,9 9,7 NW 12,9 1024,3 73 -
04:15 0,3 -4,1 8,0 WNW 12,9 1024,3 72 -
04:20 0,3 -4,2 4,8 WNW 9,7 1024,3 72 -
04:25 0,2 -4,2 4,8 West 8,0 1024,3 72 -
04:30 -0,1 -4,6   Calm 8,0 1024,3 72 -
04:35 -0,4 -4,7   Calm 1,6 1024,3 73 -
04:41 -0,4 -4,3 5,6 WNW 1,3 1024,3 75 -
04:46 -0,4 -4,3 5,6 WNW 3,4 1024,3 75 -
04:50 -0,4 -4,3 1,6 WNW 4,8 1024,3 75 -
04:55 -0,7 -4,8   Calm 3,2 1024,3 74 -
05:00 -0,9 -4,8   Calm   1024,3 75 -
05:05 -1,0 -4,7   Calm   1024,3 76 -
05:10 -1,1 -4,8   Calm   1024,3 76 -
05:15 -0,9 -4,2   Calm   1024,3 78 -
05:20 -0,7 -4,1 3,2 WNW 6,4 1024,3 78 -
05:26 -0,8 -4,3 8,0 NNW 6,8 1023,9 77 -
05:30 -0,7 -4,2 9,7 NW 11,3 1023,9 77 -
05:35 -0,7 -4,2 11,3 NNW 12,9 1024,3 77 -
05:40 -0,6 -4,2 9,7 North 12,9 1023,9 77 -
05:45 -0,6 -4,2 11,3 North 12,9 1023,9 77 -
05:50 -0,6 -4,1 12,9 North 14,5 1024,3 77 -
05:55 -0,6 -4,3 11,3 North 14,5 1024,3 76 -
06:00 -0,5 -4,2 9,7 North 12,9 1024,3 76 -
06:05 -0,7 -4,3 4,8 North 11,3 1024,3 76 -
06:11 -1,0 -4,7 9,7 WSW 6,8 1024,6 76 -
06:16 -1,2 -4,7 11,3 WSW 9,5 1024,6 77 -
06:20 -1,3 -5,0 9,7 WSW 12,9 1024,6 76 -
06:25 -1,6 -5,1 4,8 West 11,3 1024,6 77 -
06:30 -1,6 -5,1 4,8 WSW 6,4 1024,6 77 -
06:35 -1,6 -4,9 11,3 WSW 11,3 1024,6 78 -
06:40 -1,6 -4,9 9,7 WSW 11,3 1024,6 78 -
06:45 -1,7 -5,0 12,9 WSW 14,5 1024,6 78 -
06:50 -1,8 -5,1 9,7 WSW 14,5 1024,6 78 -
06:55 -1,9 -5,2 8,0 West 9,7 1024,6 78 -
07:01 -1,8 -4,9 9,3 West 7,9 1024,6 79 -
07:05 -1,8 -5,1 4,8 WSW 9,7 1024,6 78 -
07:10 -1,8 -4,9 8,0 West 9,7 1024,6 79 -
07:15 -1,8 -4,9 9,7 West 14,5 1024,6 79 -
07:20 -1,8 -4,9 9,7 West 12,9 1024,6 79 -
07:25 -1,8 -4,9 9,7 West 11,3 1024,3 79 -
07:30 -1,8 -4,9 11,3 West 14,5 1024,3 79 -
07:35 -1,8 -5,0 11,3 West 14,5 1024,3 79 -
07:40 -1,9 -5,1 8,0 West 12,9 1024,6 79 -
07:45 -2,1 -5,2 8,0 West 8,0 1024,6 79 -
07:51 -2,1 -5,2 11,1 West 8,0 1024,6 79 -
07:55 -2,0 -5,2 9,7 West 11,3 1024,6 79 -
08:00 -1,9 -5,1 9,7 West 12,9 1024,6 79 -
08:05 -2,0 -5,1 9,7 West 11,3 1024,6 79 -
08:10 -1,9 -5,1 9,7 West 12,9 1024,9 79 -
08:15 -1,8 -4,9 9,7 West 11,3 1024,9 79 -
08:20 -1,6 -4,8 9,7 West 12,9 1024,9 79 -
08:25 -1,5 -4,7 8,0 West 9,7 1024,6 79 -
08:31 -1,3 -4,4 5,6 West 5,1 1024,6 79 -
08:35 -1,2 -4,3 6,4 West 4,0 1024,6 79 -
08:40 -0,9 -3,9 3,2 West 8,0 1024,6 80 -
08:45 -0,7 -3,8   Calm 4,8 1024,6 79 -
08:50 -0,3 -3,5 1,6 West 4,8 1024,6 79 -
08:55 0,1 -3,3 4,8 West 8,0 1024,6 78 -
09:00 0,3 -3,1 3,2 West 8,0 1024,6 78 -
09:05 0,6 -3,0 3,2 West 8,0 1024,6 77 -
09:10 0,9 -2,8 3,2 West 8,0 1024,6 76 -
09:15 1,1 -2,7 3,2 West 6,4 1024,9 76 -
09:20 1,4 -2,4 5,6 WSW 5,3 1024,6 76 -
09:25 1,4 -2,3 3,2 WSW 6,4 1024,9 76 -
09:30 1,7 -2,2 3,2 WSW 6,4 1024,9 75 -
09:35 2,0 -2,2 4,8 WSW 9,7 1024,9 74 -
09:40 2,3 -1,8 8,0 West 9,7 1024,9 74 -
09:45 2,7 -1,8 4,8 West 9,7 1024,9 72 -
09:50 2,9 -1,7 9,7 WSW 12,9 1024,9 72 -
09:55 3,0 -1,7 9,7 WSW 12,9 1024,9 71 -
Daily Summary for Wednesday Oct 16 2019
Time Temp. ( °C ) Dew pt. ( °C ) Wind ( km/h ) from Gust ( km/h ) Pressure ( hPa ) Humid.( % ) Rainrate ( cm )
High4,4 -1,7 20,9 West ( 175/595 ) 22,5 1024,9 80 -
Average0,5 -3,9 8,0 West #37/118 10,8 1026,0 73 -
Low-2,1 -5,2 -   0,0 1023,6 60 -
Daily Tabular details for Wednesday Oct 16 2019
Time Temp. ( °C ) Dew pt. ( °C ) Wind ( km/h ) from Gust ( km/h ) Pressure ( hPa ) Humid.( % ) Rainrate ( cm )
00:00 4,4 -2,7 16,1 NNW 20,9 1023,6 60 -
00:18 4,2 -2,7 20,9 NNW 14,6 1023,6 61 -
00:20 4,2 -2,7 16,1 NNW 20,9 1023,6 61 -
00:25 4,1 -2,7 14,5 North 20,9 1023,6 61 -
00:30 4,1 -2,7 12,9 NNW 20,9 1023,6 61 -
00:35 4,1 -2,8 12,9 NNW 22,5 1023,6 61 -
00:40 4,1 -2,8 12,9 NNW 20,9 1023,6 61 -
00:45 4,0 -2,6 12,9 North 19,3 1023,6 62 -
00:50 4,0 -2,6 12,9 NNW 20,9 1023,6 62 -
00:55 3,9 -2,7 12,9 NNW 19,3 1023,6 62 -
01:00 3,8 -2,8 11,3 NNW 19,3 1023,9 62 -
01:05 3,7 -2,9 9,7 NNW 14,5 1023,9 62 -
01:10 3,6 -2,8 8,0 NNW 11,3 1023,9 63 -
01:15 3,4 -2,9 9,7 NW 11,3 1023,9 63 -
01:20 3,3 -2,9 8,0 NW 11,3 1023,9 64 -
01:25 3,2 -3,0 9,7 NW 11,3 1023,9 64 -
01:30 3,0 -3,1 11,3 NW 12,9 1023,9 64 -
01:35 2,8 -3,1 8,0 NW 11,3 1023,9 65 -
01:40 2,8 -3,2 8,0 WNW 9,7 1024,3 65 -
01:45 2,6 -3,1 8,0 WNW 9,7 1024,3 66 -
01:50 2,4 -3,3 8,0 NW 9,7 1024,3 66 -
01:55 2,3 -3,4 8,0 WNW 9,7 1024,3 66 -
02:00 2,2 -3,3 4,8 WNW 9,7 1024,3 67 -
02:05 2,1 -3,4 11,3 WNW 11,3 1024,6 67 -
02:10 1,9 -3,6 9,7 West 11,3 1024,3 67 -
02:15 1,8 -3,7 9,7 WNW 11,3 1024,3 67 -
02:20 1,7 -3,6 8,0 WNW 11,3 1024,3 68 -
02:25 1,4 -3,8 8,0 WNW 11,3 1024,3 68 -
02:30 1,3 -3,8 8,0 WNW 11,3 1024,3 69 -
02:35 1,2 -3,9 8,0 WNW 9,7 1024,3 69 -
02:40 1,1 -3,9 8,0 NW 9,7 1024,6 69 -
02:45 1,1 -3,9 9,7 WNW 11,3 1024,6 69 -
02:50 1,1 -3,9 9,7 WNW 11,3 1024,6 69 -
02:55 1,1 -3,8 8,0 WNW 11,3 1024,6 70 -
03:00 1,0 -3,9 4,8 WNW 9,7 1024,6 70 -
03:05 0,8 -4,0 9,7 WNW 9,7 1024,6 70 -
03:10 0,8 -4,1 11,3 West 14,5 1024,6 70 -
03:15 0,8 -3,9 11,3 West 14,5 1024,6 71 -
03:20 0,7 -4,2 9,7 West 14,5 1024,6 70 -
03:25 0,6 -4,1 8,0 West 11,3 1024,6 71 -
03:30 0,4 -4,2 4,8 West 9,7 1024,3 71 -
03:35 0,4 -4,1 8,0 WNW 9,7 1024,3 72 -
03:40 0,3 -4,2 8,0 WNW 9,7 1024,3 72 -
03:45 0,3 -4,2 8,0 NW 11,3 1024,3 72 -
03:50 0,3 -4,2 9,7 NW 11,3 1024,3 72 -
03:56 0,2 -4,2 12,9 NW 8,0 1024,3 72 -
04:00 0,3 -4,2 9,7 NW 12,9 1023,9 72 -
04:05 0,3 -4,2 11,3 NW 14,5 1024,3 72 -
04:10 0,3 -3,9 9,7 NW 12,9 1024,3 73 -
04:15 0,3 -4,1 8,0 WNW 12,9 1024,3 72 -
04:20 0,3 -4,2 4,8 WNW 9,7 1024,3 72 -
04:25 0,2 -4,2 4,8 West 8,0 1024,3 72 -
04:30 -0,1 -4,6   Calm 8,0 1024,3 72 -
04:35 -0,4 -4,7   Calm 1,6 1024,3 73 -
04:41 -0,4 -4,3 5,6 WNW 1,3 1024,3 75 -
04:46 -0,4 -4,3 5,6 WNW 3,4 1024,3 75 -
04:50 -0,4 -4,3 1,6 WNW 4,8 1024,3 75 -
04:55 -0,7 -4,8   Calm 3,2 1024,3 74 -
05:00 -0,9 -4,8   Calm   1024,3 75 -
05:05 -1,0 -4,7   Calm   1024,3 76 -
05:10 -1,1 -4,8   Calm   1024,3 76 -
05:15 -0,9 -4,2   Calm   1024,3 78 -
05:20 -0,7 -4,1 3,2 WNW 6,4 1024,3 78 -
05:26 -0,8 -4,3 8,0 NNW 6,8 1023,9 77 -
05:30 -0,7 -4,2 9,7 NW 11,3 1023,9 77 -
05:35 -0,7 -4,2 11,3 NNW 12,9 1024,3 77 -
05:40 -0,6 -4,2 9,7 North 12,9 1023,9 77 -
05:45 -0,6 -4,2 11,3 North 12,9 1023,9 77 -
05:50 -0,6 -4,1 12,9 North 14,5 1024,3 77 -
05:55 -0,6 -4,3 11,3 North 14,5 1024,3 76 -
06:00 -0,5 -4,2 9,7 North 12,9 1024,3 76 -
06:05 -0,7 -4,3 4,8 North 11,3 1024,3 76 -
06:11 -1,0 -4,7 9,7 WSW 6,8 1024,6 76 -
06:16 -1,2 -4,7 11,3 WSW 9,5 1024,6 77 -
06:20 -1,3 -5,0 9,7 WSW 12,9 1024,6 76 -
06:25 -1,6 -5,1 4,8 West 11,3 1024,6 77 -
06:30 -1,6 -5,1 4,8 WSW 6,4 1024,6 77 -
06:35 -1,6 -4,9 11,3 WSW 11,3 1024,6 78 -
06:40 -1,6 -4,9 9,7 WSW 11,3 1024,6 78 -
06:45 -1,7 -5,0 12,9 WSW 14,5 1024,6 78 -
06:50 -1,8 -5,1 9,7 WSW 14,5 1024,6 78 -
06:55 -1,9 -5,2 8,0 West 9,7 1024,6 78 -
07:01 -1,8 -4,9 9,3 West 7,9 1024,6 79 -
07:05 -1,8 -5,1 4,8 WSW 9,7 1024,6 78 -
07:10 -1,8 -4,9 8,0 West 9,7 1024,6 79 -
07:15 -1,8 -4,9 9,7 West 14,5 1024,6 79 -
07:20 -1,8 -4,9 9,7 West 12,9 1024,6 79 -
07:25 -1,8 -4,9 9,7 West 11,3 1024,3 79 -
07:30 -1,8 -4,9 11,3 West 14,5 1024,3 79 -
07:35 -1,8 -5,0 11,3 West 14,5 1024,3 79 -
07:40 -1,9 -5,1 8,0 West 12,9 1024,6 79 -
07:45 -2,1 -5,2 8,0 West 8,0 1024,6 79 -
07:51 -2,1 -5,2 11,1 West 8,0 1024,6 79 -
07:55 -2,0 -5,2 9,7 West 11,3 1024,6 79 -
08:00 -1,9 -5,1 9,7 West 12,9 1024,6 79 -
08:05 -2,0 -5,1 9,7 West 11,3 1024,6 79 -
08:10 -1,9 -5,1 9,7 West 12,9 1024,9 79 -
08:15 -1,8 -4,9 9,7 West 11,3 1024,9 79 -
08:20 -1,6 -4,8 9,7 West 12,9 1024,9 79 -
08:25 -1,5 -4,7 8,0 West 9,7 1024,6 79 -
08:31 -1,3 -4,4 5,6 West 5,1 1024,6 79 -
08:35 -1,2 -4,3 6,4 West 4,0 1024,6 79 -
08:40 -0,9 -3,9 3,2 West 8,0 1024,6 80 -
08:45 -0,7 -3,8   Calm 4,8 1024,6 79 -
08:50 -0,3 -3,5 1,6 West 4,8 1024,6 79 -
08:55 0,1 -3,3 4,8 West 8,0 1024,6 78 -
09:00 0,3 -3,1 3,2 West 8,0 1024,6 78 -
09:05 0,6 -3,0 3,2 West 8,0 1024,6 77 -
09:10 0,9 -2,8 3,2 West 8,0 1024,6 76 -
09:15 1,1 -2,7 3,2 West 6,4 1024,9 76 -
09:20 1,4 -2,4 5,6 WSW 5,3 1024,6 76 -
09:25 1,4 -2,3 3,2 WSW 6,4 1024,9 76 -
09:30 1,7 -2,2 3,2 WSW 6,4 1024,9 75 -
09:35 2,0 -2,2 4,8 WSW 9,7 1024,9 74 -
09:40 2,3 -1,8 8,0 West 9,7 1024,9 74 -
09:45 2,7 -1,8 4,8 West 9,7 1024,9 72 -
09:50 2,9 -1,7 9,7 WSW 12,9 1024,9 72 -
09:55 3,0 -1,7 9,7 WSW 12,9 1024,9 71 -

Download your copy of this data-set  here

Our weather-data as stored at Weather Underground. Script developed by Jim McMurry. Adapted for the template by Leuven-Template.eu